[[{"header":{"parameterUnit":"m.s-1","parameterCategory":1,"la1":30.2991,"la2":30.254,"lo1":-89.0895,"lo2":-89.0444,"dy":0.0017,"dx":0.0017,"nx":28,"ny":28,"refTime":"2024-06-25T09:00:00:Z","depth":0,"parameterNumber":2,"parameterNumberName":"U-component_of_WINDS"},"data":[0,0,0,0,0,0,0,0,0,0,0,0,0,0,0,0,0,0,0,0,0,0,0,0,0,0,0,0,0,0,0,0,0,0,0,0,0,0,0,0,0,0,0,0,0,0,0,0,0,0,0,0,0,0,0,0,0,0,4.1272,4.1273,0,4.1399,4.1401,4.1402,4.1353,4.135,4.1348,4.1345,4.1478,4.1484,4.1491,0,0,0,0,0,0,0,0,0,0,0,0,0,4.0987,4.0992,4.1271,4.1273,4.1275,4.1399,4.1401,4.1403,4.1354,4.135,4.1347,4.1343,4.1476,4.1484,4.1491,0,0,0,0,0,0,0,0,0,0,0,0,0,4.1112,4.0994,4.1271,4.1265,4.1266,4.1399,4.1401,4.1403,4.1355,4.135,4.1346,4.1342,4.1474,4.1483,4.1492,4.1639,0,0,4.1521,4.1525,0,0,0,0,0,0,0,0,4.1105,4.1123,4.1265,4.1266,4.1267,4.1356,4.1349,4.1482,4.1356,4.1321,4.1345,4.134,4.1441,4.1453,4.1487,4.1646,4.1651,4.1522,4.1528,4.1532,4.1535,0,0,0,0,0,0,0,4.1097,4.1117,4.1322,4.1267,4.1268,4.1257,4.127,4.1374,4.1405,4.1324,4.1321,4.1336,4.1441,4.1478,4.149,4.1653,4.1522,4.153,4.1536,4.154,4.1939,4.1943,0,0,0,0,0,0,4.1087,4.111,4.1318,4.1326,4.1173,4.1266,4.128,4.1332,4.1403,4.141,4.134,4.1333,4.1464,4.1479,4.1494,4.1671,4.1532,4.1541,4.1546,4.1934,4.194,4.1945,0,0,0,0,0,0,4.1081,4.1106,4.1313,4.1217,4.1243,4.1275,4.1334,4.1337,4.1373,4.1415,4.1421,4.1372,4.1461,4.1481,4.1603,4.1675,4.1545,4.1554,4.1928,4.1935,4.1942,4.2025,0,0,0,0,0,0,4.1073,4.1104,4.116,4.1219,4.1248,4.142,4.1338,4.1342,4.139,4.1382,4.1447,4.1453,4.1459,4.1589,4.1613,4.1685,4.1561,4.1922,4.1931,4.194,4.2016,4.2034,4.205,0,0,0,0,0,4.1063,4.1179,4.1163,4.1189,4.1318,4.1424,4.144,4.1444,4.1395,4.1452,4.1479,4.1451,4.1663,4.1602,4.1628,4.1705,4.1917,4.1929,4.1939,4.2009,4.2031,4.205,0,0,0,0,0,0,4.1129,4.1187,4.117,4.1308,4.1361,4.1415,4.1487,4.1468,4.1537,4.1527,4.1529,4.1544,4.167,4.17,4.1631,4.1851,4.1783,4.18,4.1827,4.1848,4.1865,4.1855,4.1569,0,0,0,0,0,4.1159,4.124,4.1286,4.1403,4.1431,4.1454,4.15,4.1498,4.1554,4.1577,4.1612,4.1668,4.1747,4.1799,4.1874,4.202,4.2033,4.2085,4.2102,4.2116,4.2131,4.2209,4.2233,4.1981,4.1981,4.1981,0,0,4.1224,4.1265,4.1315,4.1418,4.1458,4.1542,4.1474,4.1565,4.1627,4.1591,4.1708,4.1737,4.1799,4.1933,4.1994,4.1962,4.2203,4.213,4.2141,4.2148,4.2223,4.2247,4.2268,4.1989,4.1987,4.1986,0,0,4.1383,4.1422,4.1524,4.1566,4.1628,4.1643,4.1668,4.1725,4.1742,4.186,4.1834,4.1908,4.2044,4.209,4.2131,4.2306,4.2283,4.2331,4.2419,4.2496,4.2516,4.2534,4.2596,4.2618,4.2345,4.2345,4.2345,0,4.1454,4.1578,4.1579,4.1672,4.1718,4.1688,4.1791,4.1832,4.1917,4.1949,4.1911,4.2081,4.2121,4.2265,4.2308,4.2342,4.237,4.2323,4.2513,4.2531,4.2547,4.2607,4.263,4.2351,4.235,4.2349,4.2349,0,4.1663,4.175,4.1825,4.1906,4.196,4.2058,4.2073,4.2128,4.2122,4.214,4.2261,4.2307,4.2391,4.2425,4.242,4.2569,4.2547,4.2511,4.2443,4.2576,4.2632,4.2655,4.2358,4.2356,4.2355,4.2353,0,0,4.1868,4.1947,4.1975,4.2011,4.2077,4.2145,4.2241,4.2322,4.2369,4.2428,4.2509,4.2625,4.2592,4.2638,4.2638,4.2706,4.2841,4.2661,4.2663,4.2693,4.3008,4.3035,4.3061,4.2826,4.2831,4.2834,4.3003,0,4.2032,4.2201,4.2204,4.2358,4.2438,4.241,4.2495,4.2545,4.2565,4.2636,4.2659,4.274,4.2691,4.2719,4.2784,4.2811,4.2905,4.2799,4.2903,4.2906,4.2887,4.3091,4.3119,4.3276,4.3025,4.3029,4.3031,0,4.2247,4.2311,4.2474,4.2528,4.2561,4.2637,4.2711,4.2779,4.2836,4.2846,4.2897,4.2887,4.2986,4.2914,4.3051,4.2979,4.3021,4.3041,4.3047,4.3057,4.2977,4.3106,4.3326,4.335,4.3066,4.3063,4.3061,0,4.2379,4.2507,4.2621,4.2652,4.2719,4.2772,4.2803,4.2855,4.2903,4.2968,4.2999,4.3076,4.3117,4.3177,4.3187,4.3135,4.3324,4.3254,4.3336,4.3336,4.3377,4.3374,4.3607,4.3405,4.3405,4.3404,4.3404,0,4.2562,4.2663,4.2681,4.2751,4.2863,4.2865,4.2976,4.3002,4.3048,4.3123,4.3104,4.3175,4.3185,4.3258,4.3267,4.3379,4.3398,4.3409,4.341,4.3411,4.341,4.3439,4.3428,4.341,4.3409,4.3408,4.3407,0,4.273,4.2746,4.2868,4.292,4.2935,4.3016,4.3061,4.3128,4.3145,4.324,4.3263,4.3291,4.3377,4.3393,4.3494,4.35,4.3633,4.3624,4.3614,4.3613,4.3693,4.3686,4.3953,4.3989,4.3763,4.3765,4.3767,0,4.2845,4.2922,4.2982,4.303,4.3063,4.3141,4.3189,4.3195,4.3246,4.3316,4.3375,4.3458,4.3525,4.3663,4.3693,4.377,4.3762,4.3851,4.3774,4.3772,4.3763,4.3759,4.3766,4.3866,4.3868,4.387,4.3872,0,4.3049,4.3053,4.3123,4.3197,4.3255,4.3314,4.3369,4.341,4.3422,4.3482,4.3568,4.362,4.3722,4.3805,4.3882,4.3914,4.3896,4.3896,4.3918,4.392,4.3911,4.3916,4.3654,4.3889,4.3888,4.3886,4.3885,4.3885,4.3194,4.326,4.3313,4.3392,4.3433,4.3485,4.3551,4.3576,4.3648,4.3731,4.373,4.3825,4.3879,4.398,4.4017,4.4092,4.4064,4.4097,4.4105,4.4114,4.4121,4.3899,4.4106,4.4105,4.4105,4.4104,4.4104,0,4.3396,4.3428,4.3501,4.3578,4.364,4.3616,4.3676,4.373,4.3813,4.3865,4.393,4.4029,4.411,4.4146,4.4225,4.4278,4.4271,4.4298,4.4294,4.4302,4.4142,4.4114,4.4302,4.4302,4.4302,4.4302,4.4302,4.4302,4.3509,4.362,4.363,4.3761,4.3793,4.3884,4.392,4.3968,4.4009,4.4121,4.4187,4.4209,4.4255,4.4337,4.4409,4.4418,4.4448,4.4479,4.4484,4.4333,4.4313,4.4294,4.4268,4.4486,4.4486,4.4638,4.4639,4.464]},{"header":{"parameterUnit":"m.s-1","parameterCategory":1,"la1":30.2991,"la2":30.254,"lo1":-89.0895,"lo2":-89.0444,"dy":0.0017,"dx":0.0017,"nx":28,"ny":28,"refTime":"2024-06-25T09:00:00:Z","depth":0,"parameterNumber":3,"parameterNumberName":"V-component_of_WINDS"},"data":[0,0,0,0,0,0,0,0,0,0,0,0,0,0,0,0,0,0,0,0,0,0,0,0,0,0,0,0,0,0,0,0,0,0,0,0,0,0,0,0,0,0,0,0,0,0,0,0,0,0,0,0,0,0,0,0,0,0,-0.322,-0.3221,0,-0.3257,-0.3257,-0.3258,-0.3282,-0.3282,-0.3282,-0.3283,-0.332,-0.3321,-0.3322,0,0,0,0,0,0,0,0,0,0,0,0,0,-0.3172,-0.3173,-0.322,-0.3221,-0.3221,-0.3257,-0.3257,-0.3258,-0.3282,-0.3282,-0.3282,-0.3283,-0.332,-0.3321,-0.3322,0,0,0,0,0,0,0,0,0,0,0,0,0,-0.32,-0.3173,-0.322,-0.3238,-0.324,-0.3257,-0.3257,-0.3258,-0.3282,-0.3282,-0.3282,-0.3283,-0.332,-0.3321,-0.3322,-0.3325,0,0,-0.3326,-0.3327,0,0,0,0,0,0,0,0,-0.3198,-0.3201,-0.3235,-0.3237,-0.3239,-0.3265,-0.3254,-0.328,-0.3282,-0.3266,-0.3283,-0.3283,-0.3302,-0.3305,-0.3311,-0.3327,-0.3329,-0.3326,-0.3327,-0.3328,-0.3328,0,0,0,0,0,0,0,-0.3196,-0.32,-0.3235,-0.3235,-0.3238,-0.3244,-0.3248,-0.3259,-0.3282,-0.3267,-0.3269,-0.3273,-0.3303,-0.331,-0.3312,-0.3329,-0.3326,-0.3327,-0.3328,-0.3329,-0.3349,-0.3349,0,0,0,0,0,0,-0.3191,-0.3198,-0.3234,-0.3236,-0.3219,-0.3244,-0.3249,-0.3256,-0.3282,-0.3286,-0.3273,-0.3274,-0.3307,-0.331,-0.3313,-0.3318,-0.3328,-0.3329,-0.333,-0.335,-0.3349,-0.3349,0,0,0,0,0,0,-0.319,-0.3194,-0.3232,-0.3218,-0.3223,-0.3245,-0.3253,-0.3257,-0.3264,-0.3286,-0.329,-0.3275,-0.3308,-0.3312,-0.3322,-0.332,-0.3329,-0.3331,-0.335,-0.3349,-0.3349,-0.3328,0,0,0,0,0,0,-0.3189,-0.3194,-0.3195,-0.3217,-0.3224,-0.324,-0.3253,-0.3258,-0.3266,-0.3268,-0.329,-0.3294,-0.3308,-0.332,-0.3323,-0.3322,-0.3332,-0.335,-0.335,-0.3349,-0.3329,-0.3327,-0.3325,0,0,0,0,0,-0.3187,-0.3188,-0.3195,-0.3199,-0.3225,-0.324,-0.3243,-0.326,-0.3265,-0.3267,-0.3281,-0.3293,-0.332,-0.3321,-0.3325,-0.3324,-0.335,-0.335,-0.3349,-0.333,-0.3327,-0.3325,0,0,0,0,0,0,-0.3164,-0.3191,-0.3199,-0.3207,-0.3221,-0.3244,-0.3246,-0.3257,-0.3269,-0.3271,-0.3291,-0.3296,-0.3304,-0.3315,-0.3316,-0.3328,-0.3336,-0.3337,-0.332,-0.3318,-0.3316,-0.3313,-0.3333,0,0,0,0,0,-0.316,-0.317,-0.3192,-0.3197,-0.3204,-0.3224,-0.323,-0.3242,-0.3257,-0.3263,-0.3279,-0.3293,-0.3305,-0.3312,-0.3324,-0.3331,-0.3336,-0.3332,-0.333,-0.3329,-0.3328,-0.3333,-0.3331,-0.3347,-0.3347,-0.3347,0,0,-0.3152,-0.3168,-0.3172,-0.3193,-0.3205,-0.3214,-0.3228,-0.3238,-0.3245,-0.3265,-0.3275,-0.3287,-0.3305,-0.3313,-0.3318,-0.3323,-0.3325,-0.3328,-0.3326,-0.3327,-0.3332,-0.333,-0.3329,-0.3347,-0.3347,-0.3347,0,0,-0.3142,-0.3154,-0.316,-0.3172,-0.319,-0.3203,-0.3204,-0.3225,-0.3234,-0.3245,-0.326,-0.3269,-0.3289,-0.3301,-0.3309,-0.3303,-0.3314,-0.3307,-0.3297,-0.3301,-0.33,-0.3298,-0.3296,-0.3295,-0.3307,-0.3307,-0.3307,0,-0.3129,-0.3143,-0.3161,-0.3169,-0.3178,-0.3197,-0.3202,-0.3213,-0.3234,-0.324,-0.3245,-0.327,-0.3283,-0.3294,-0.3293,-0.33,-0.3302,-0.3304,-0.3298,-0.3297,-0.3297,-0.3295,-0.3294,-0.3306,-0.3306,-0.3306,-0.3306,0,-0.3127,-0.3137,-0.3139,-0.3158,-0.3167,-0.3174,-0.3193,-0.32,-0.3211,-0.3224,-0.3235,-0.3251,-0.3267,-0.3271,-0.3281,-0.3283,-0.3286,-0.3294,-0.3303,-0.3294,-0.3292,-0.3291,-0.3304,-0.3305,-0.3305,-0.3305,0,0,-0.3103,-0.3132,-0.3133,-0.3142,-0.3163,-0.3171,-0.3179,-0.3194,-0.3199,-0.3214,-0.322,-0.3237,-0.3245,-0.3255,-0.3267,-0.3271,-0.3264,-0.3279,-0.328,-0.3275,-0.3267,-0.326,-0.3259,-0.3272,-0.3272,-0.3272,-0.3266,0,-0.3095,-0.311,-0.3126,-0.3135,-0.3144,-0.3162,-0.3169,-0.3183,-0.3195,-0.3205,-0.3218,-0.323,-0.324,-0.3245,-0.325,-0.3264,-0.3263,-0.3265,-0.3279,-0.3279,-0.3273,-0.3258,-0.3251,-0.3244,-0.3265,-0.3265,-0.3265,0,-0.3088,-0.3101,-0.3111,-0.3131,-0.3136,-0.3141,-0.3156,-0.3165,-0.3182,-0.319,-0.3201,-0.3215,-0.3224,-0.3232,-0.3245,-0.3246,-0.3253,-0.3261,-0.3261,-0.3263,-0.3271,-0.3259,-0.3243,-0.3241,-0.3264,-0.3265,-0.3265,0,-0.3069,-0.3089,-0.3097,-0.3104,-0.3129,-0.3132,-0.3142,-0.3159,-0.3167,-0.318,-0.3186,-0.32,-0.3208,-0.3219,-0.3236,-0.324,-0.3247,-0.3257,-0.3255,-0.3254,-0.3255,-0.3254,-0.3238,-0.326,-0.326,-0.326,-0.326,0,-0.3059,-0.3064,-0.3089,-0.3094,-0.31,-0.3119,-0.3125,-0.3137,-0.3151,-0.3159,-0.3176,-0.3183,-0.3205,-0.3215,-0.3228,-0.3237,-0.3241,-0.3248,-0.3251,-0.3246,-0.3245,-0.325,-0.3251,-0.326,-0.326,-0.326,-0.326,0,-0.3038,-0.3055,-0.3065,-0.3087,-0.3093,-0.3097,-0.3116,-0.3121,-0.3135,-0.3144,-0.3148,-0.3169,-0.3181,-0.3199,-0.3217,-0.3226,-0.3232,-0.3238,-0.3227,-0.3229,-0.3225,-0.3225,-0.3212,-0.3211,-0.3233,-0.3233,-0.3233,0,-0.303,-0.3034,-0.3057,-0.3063,-0.3072,-0.3082,-0.3091,-0.311,-0.3117,-0.3136,-0.314,-0.3153,-0.3165,-0.3184,-0.3201,-0.3215,-0.3221,-0.3215,-0.3223,-0.3218,-0.322,-0.3219,-0.322,-0.3213,-0.3213,-0.3213,-0.3212,0,-0.3013,-0.3022,-0.3033,-0.3046,-0.3056,-0.3068,-0.308,-0.3085,-0.3106,-0.3115,-0.3127,-0.3136,-0.3154,-0.3168,-0.3184,-0.3195,-0.3207,-0.321,-0.321,-0.3204,-0.3197,-0.3201,-0.3221,-0.321,-0.321,-0.321,-0.3211,-0.3211,-0.2999,-0.3003,-0.3019,-0.3031,-0.3043,-0.3054,-0.306,-0.3074,-0.3085,-0.3101,-0.3112,-0.3124,-0.314,-0.3163,-0.3174,-0.3184,-0.3189,-0.3189,-0.3189,-0.3189,-0.3187,-0.3196,-0.3187,-0.3187,-0.3187,-0.3187,-0.3187,0,-0.2982,-0.2994,-0.3004,-0.3022,-0.3031,-0.3041,-0.3056,-0.3063,-0.3073,-0.3088,-0.3099,-0.3113,-0.3126,-0.3144,-0.3159,-0.3163,-0.3169,-0.3166,-0.3166,-0.3168,-0.3181,-0.318,-0.3161,-0.3161,-0.3161,-0.3161,-0.3161,-0.3161,-0.2975,-0.2983,-0.2993,-0.3007,-0.3019,-0.3031,-0.3038,-0.3049,-0.306,-0.3075,-0.3086,-0.3098,-0.3114,-0.3129,-0.3142,-0.3147,-0.3151,-0.3146,-0.3153,-0.3165,-0.3167,-0.3169,-0.3168,-0.3147,-0.3147,-0.3139,-0.3139,-0.3139]}]]